Tracking 30995 objects as of 5-Jul-2025
HD Live streaming from Space Station
objects crossing your sky now

STARLINK-3522

Track STARLINK-3522 now!
10-day predictions
STARLINK-3522 is classified as:


NORAD ID: 51725
Int'l Code: 2022-016M
Perigee: 546.0 km
Apogee: 547.8 km
Inclination: 53.2 °
Period: 95.4 minutes
Semi major axis: 6917 km
RCS: Unknown
Launch date: February 21, 2022
Source: United States (US)
Launch site: AIR FORCE EASTERN TEST RANGE (AFETR)
Your satellite tracking list
Your tracking list is empty




NASA's NSSDC Master Catalog

Two Line Element Set (TLE):
1 51725U 22016M   25186.50950196  .00000043  00000-0  20773-4 0  9998
2 51725  53.2182 358.7535 0001333  97.3352 262.7792 15.08833492186102
Source of the keplerian elements: AFSPC